This is the latest recevied weather packets stored in our database for station/object DM7LA-WX. If no packets are shown the sender has not sent any weather packets the latest 10 day(s).
| Time | Temp. | Humidity | Pressure | Rain* | Wind** | Luminosity | Snow |
|---|---|---|---|---|---|---|---|
| 1788044281 | 17.22° C | 93% | 999.9 hPa | 0.25 mm | - | - | - |
| 1788040682 | 17.22° C | 92% | 1001 hPa | 0 mm | - | - | - |
| 1788037081 | 17.22° C | 91% | 1001.7 hPa | 0 mm | - | - | - |
| 1788033481 | 17.78° C | 89% | 1002.4 hPa | 0.25 mm | - | - | - |
| 1788029881 | 17.78° C | 86% | 1002.6 hPa | 0 mm | - | - | - |
| 1788026282 | 18.89° C | 85% | 1002.9 hPa | 0 mm | - | - | - |
| 1788022682 | 19.44° C | 81% | 1003 hPa | 0 mm | - | - | - |
| 1788019082 | 18.33° C | 83% | 1003.7 hPa | 0 mm | - | - | - |
| 1788015482 | 18.89° C | 79% | 1003.7 hPa | 0 mm | - | - | - |
| 1788011882 | 19.44° C | 79% | 1003.5 hPa | 0.51 mm | - | - | - |
| 1788008281 | 20.56° C | 71% | 1003.4 hPa | 0 mm | - | - | - |
| 1788004682 | 20.56° C | 76% | 1003.5 hPa | 0 mm | - | - | - |
| 1788001081 | 20° C | 78% | 1003.5 hPa | 0 mm | - | - | - |
| 1787997482 | 18.89° C | 82% | 1002.9 hPa | 0 mm | - | - | - |
| 1787993882 | 17.22° C | 89% | 1002.3 hPa | 0 mm | - | - | - |
| 1787990282 | 16.67° C | 89% | 1002.1 hPa | 0 mm | - | - | - |
| 1787986682 | 15.56° C | 92% | 1001.8 hPa | 0.25 mm | - | - | - |
| 1787983082 | 15.56° C | 90% | 1001.5 hPa | 0.25 mm | - | - | - |
| 1787979482 | 16.11° C | 87% | 1001.3 hPa | 0 mm | - | - | - |
| 1787975882 | 16.67° C | 87% | 1001.6 hPa | 0 mm | - | - | - |
| 1787972281 | 16.11° C | 87% | 1001.4 hPa | 0 mm | - | - | - |
| 1787968681 | 16.11° C | 88% | 1001.6 hPa | 0 mm | - | - | - |
| 1787965081 | 16.11° C | 88% | 1001.6 hPa | 0 mm | - | - | - |
| 1787961481 | 16.11° C | 89% | 1001.5 hPa | 0 mm | - | - | - |
| 1787957881 | 16.11° C | 89% | 1002.1 hPa | 0 mm | - | - | - |
* Rain latest hour (hover to see other rain measurements)
** Current wind speed in m/s (hover to see current wind gust speed)